Lapse_Rate
5.1 5.0 5.2 5.3 5.4 5.3 5.1 5.2 5.3 5.4 5.3 5.3 5.2 5.2 5.0 4.9 5.0 4.9 4.8 4.9 4.7 4.7 5.1 5.2 5.4 5.4 5.5
5.3 5.5 5.2 5.3 5.4 5.2 5.3 5.2 5.2 5.4 5.3 5.2 5.2 5.2 4.9 4.8 4.9 5.0 5.0 4.7 4.7 4.9 4.9 5.3 5.4 5.5 5.7
5.7 5.6 5.4 5.5 5.5 5.3 5.3 5.2 5.2 5.4 5.2 5.1 5.3 4.9 4.7 4.6 4.9 5.0 4.8 4.8 4.7 4.6 4.8 5.4 5.5 5.4 5.5
5.7 5.6 5.4 5.6 5.6 5.5 5.4 5.2 5.2 5.3 5.3 5.2 5.2 4.8 4.6 4.7 5.0 4.9 4.6 4.6 4.6 4.4 4.9 5.4 5.5 5.3 5.5
5.6 5.6 5.6 5.8 5.7 5.5 5.6 5.3 5.2 5.5 5.4 5.2 5.0 4.8 4.7 4.7 4.8 4.7 4.6 4.5 4.5 4.5 4.9 5.4 5.4 5.3 5.5
5.6 5.6 5.5 5.4 5.7 5.6 5.5 5.5 5.3 5.1 5.2 5.3 5.0 4.7 4.7 4.8 4.7 4.6 4.6 4.5 4.5 4.6 5.1 5.4 5.4 5.2 5.5
5.2 5.5 5.4 5.4 5.4 5.4 5.2 5.3 5.3 5.2 5.3 5.1 5.0 4.9 4.8 4.7 4.5 4.4 4.1 4.3 4.5 4.8 5.2 5.3 5.2 5.3 5.5
5.5 5.5 5.5 5.6 5.6 5.3 5.2 5.4 5.4 5.4 5.2 5.0 4.9 4.8 4.8 4.5 4.3 4.1 4.1 4.3 4.5 4.9 5.1 5.2 5.2 5.3 5.7
5.4 5.3 5.3 5.5 5.4 5.2 5.3 5.3 5.3 5.1 5.1 4.8 4.7 4.7 4.6 4.2 4.2 4.2 4.1 4.6 4.7 4.9 5.1 5.2 5.2 5.3 5.8
5.3 5.2 5.2 5.3 5.3 5.2 5.3 5.2 5.1 5.0 4.7 4.6 4.6 4.6 4.4 4.5 4.0 3.9 4.1 4.6 5.0 5.0 5.1 5.2 5.1 5.4 5.9
4.7 4.7 5.1 5.1 5.2 5.1 4.9 4.8 4.7 4.8 4.7 4.7 4.5 4.3 4.5 3.9 3.9 4.0 4.5 4.9 5.0 4.9 5.0 5.0 5.1 5.5 5.9
4.6 4.8 5.1 5.1 5.0 4.9 4.8 4.8 4.7 4.7 4.6 4.5 4.1 4.1 3.9 3.9 3.9 4.2 4.7 4.9 4.9 4.8 4.8 5.0 5.1 5.6 5.8
4.8 5.0 5.1 4.8 4.8 4.9 4.7 4.8 4.7 4.5 4.4 4.1 4.0 3.8 3.8 3.9 4.0 4.4 4.8 4.9 4.7 4.7 4.7 4.9 5.1 5.4 5.6
4.6 4.7 4.8 4.9 4.8 4.9 4.8 4.6 4.5 4.3 4.0 3.8 3.5 3.8 3.8 4.0 4.2 4.5 4.9 4.9 4.8 4.9 4.9 4.9 5.5 5.6 5.8
4.8 4.6 4.9 4.6 4.5 4.5 4.4 4.3 4.3 3.7 3.7 3.7 4.0 3.8 4.0 4.2 4.4 4.7 4.9 4.8 4.8 5.0 5.0 5.0 5.2 5.4 5.8
4.2 4.6 4.6 4.5 4.4 4.2 4.4 4.2 4.2 3.9 3.8 4.0 3.8 4.0 4.2 4.4 4.7 4.9 4.8 4.7 4.9 5.1 5.1 5.2 5.2 5.6 5.7
4.9 4.5 4.7 4.7 4.4 4.6 5.3 4.7 4.1 4.1 3.9 3.9 4.0 4.2 4.4 4.7 4.9 4.9 4.7 4.8 5.0 5.1 5.2 5.3 5.3 5.5 5.6
Wind_Speed
2 5 6 14 16 20 22 22 19 16 14 13 12 10 8 7 5 5 5 6 7 9 10 12 15 17 18
2 3 4 12 17 17 16 20 19 16 15 13 12 10 8 6 5 4 4 5 6 8 9 12 13 16 17
4 2 3 9 5 9 11 15 17 16 14 13 11 10 9 7 5 3 3 3 4 6 8 11 13 16 18
4 8 6 3 4 7 4 3 4 15 13 14 13 11 10 8 6 4 2 2 3 5 7 11 13 16 17
6 5 5 7 13 5 3 3 1 5 6 10 12 13 11 10 8 6 4 2 1 4 7 10 13 15 16
6 11 12 10 7 8 4 4 4 12 4 4 13 10 13 12 10 9 7 3 1 4 8 10 12 14 16
14 12 10 14 12 10 6 3 4 4 5 4 9 4 13 13 12 12 8 5 0 4 7 9 11 13 15
12 12 10 21 19 13 9 5 4 3 7 3 3 3 7 11 12 11 9 7 1 5 7 9 11 13 14
16 18 20 29 25 14 8 8 1 3 7 3 3 2 2 4 8 9 9 7 4 4 6 10 11 11 11
7 15 21 25 28 21 11 11 3 1 6 3 2 3 2 1 6 7 6 8 5 1 5 8 10 10 10
6 6 9 14 15 16 18 9 4 2 9 5 2 2 2 2 1 5 7 5 3 1 4 6 8 8 9
8 6 7 6 6 16 16 13 6 3 19 8 3 3 3 2 2 2 3 4 3 2 5 8 7 7 7
8 6 4 9 17 15 17 21 18 15 11 5 9 4 2 2 3 2 3 2 3 3 6 8 7 7 4
8 5 9 6 7 7 4 5 4 4 14 11 12 7 2 2 2 2 1 2 1 2 4 6 7 6 9
9 8 8 7 5 3 6 3 3 4 3 6 14 16 11 4 2 2 2 1 1 2 1 2 4 4 8
10 10 10 9 8 6 6 3 5 5 4 3 3 2 3 5 4 3 1 2 0 3 2 1 2 4 11
11 11 11 9 13 9 7 6 6 5 4 4 3 2 2 3 0 1 3 1 0 1 1 1 2 6 11
Wind_Direction
123 156 151 152 164 169 165 157 160 169 172 170 166 161 149 127 115 96 79 56 44 32 26 21 12 8 4
138 133 144 158 161 157 161 166 168 175 181 181 177 169 163 147 138 114 83 58 40 31 25 21 10 3 2
145 136 117 156 132 154 162 168 178 180 188 188 185 185 180 173 161 144 97 67 37 27 24 17 7 3 3
117 153 153 136 143 161 162 149 175 188 190 193 193 194 193 191 180 171 128 72 19 18 17 15 6 4 3
145 147 156 165 182 164 145 135 191 163 165 191 194 193 198 202 196 191 171 164 8 6 11 10 4 3 2
163 176 184 178 169 174 132 140 200 205 151 210 195 198 203 209 209 204 188 177 344 2 4 2 359 2 4
169 181 175 184 164 168 177 147 170 187 134 190 189 208 219 217 209 199 195 194 321 358 355 352 356 360 2
180 182 177 171 177 180 170 123 82 116 160 171 170 205 197 207 202 201 203 205 251 346 345 342 352 357 356
170 166 168 169 164 135 158 158 142 195 192 132 179 120 151 182 201 207 208 216 242 307 334 341 348 355 349
147 161 161 171 167 173 162 174 136 103 210 137 133 145 165 175 177 191 202 201 227 302 349 343 344 345 344
130 137 147 165 169 159 168 164 147 176 178 132 145 134 89 132 171 170 181 174 162 107 0 350 346 343 338
142 149 155 153 138 137 137 121 99 137 162 136 131 153 125 154 150 180 170 161 138 40 352 345 349 355 351
164 164 145 129 121 108 112 108 90 89 116 118 142 127 120 113 144 164 149 161 102 40 338 350 337 341 338
157 120 124 135 140 131 128 131 101 74 73 88 117 117 103 80 124 136 130 152 137 355 338 324 329 359 355
147 147 145 141 138 125 125 128 105 131 111 68 86 90 82 118 104 116 142 143 174 331 68 282 314 352 344
153 156 157 158 148 134 132 122 129 137 132 131 127 84 62 50 66 142 128 159 137 354 5 325 275 311 344
159 158 154 155 149 151 144 137 128 137 138 141 148 128 139 189 206 65 147 155 58 11 264 200 277 300 327